Regional Weather Roundup
Issued by NWS

Home | Current Version | Previous Version | Text Only | Print | Product List | Glossary Off
Versions: 1 2 3 4 5 6 7 8 9 10 11 12 13 14 15 16 17 18 19 20 21 22 23 24 25 26 27 28 29 30 31 32 33 34 35 36 37 38 39 40 41 42 43 44 45 46 47 48 49 50

000
ASUS45 KBOU 301207
RWRCO

WEATHER ROUNDUP FOR COLORADO
NATIONAL WEATHER SERVICE DENVER/BOULDER CO
600 AM MDT SAT JUL 30 2016

NOTE: "FAIR" INDICATES FEW OR NO CLOUDS BELOW 12000 FEET WITH NO
SIGNIFICANT WEATHER AND/OR OBSTRUCTIONS TO VISIBILITY.

COZ001>005-013-030-031-301300-
...NORTHWEST COLORADO...

CITY           SKY/WX    TMP DP  RH WIND       PRES   REMARKS
CRAIG          FAIR      43  37  79 CALM      30.14R
HAYDEN         FAIR      54  34  47 E10       30.15R
MEEKER         FAIR      50  39  66 CALM      30.16R
MOUNT WERNER   NOT AVBL
STEAMBOAT SPGS FAIR      46  37  68 CALM      30.18R
WALDEN         FAIR      41  32  70 SE5       30.27R
$$

COZ006>008-011-301300-
...WEST CENTRAL VALLEYS...

CITY           SKY/WX    TMP DP  RH WIND       PRES   REMARKS
GRAND JUNCTION FAIR      69  38  32 E5        30.00R
MONTROSE       FAIR      69  37  30 SE9       30.10R
EAGLE          FAIR      54  36  50 SE5       30.21R
RIFLE          FAIR      56  42  59 CALM      30.09R
DELTA          NOT AVBL
NUCLA          NOT AVBL
$$

COZ017>023-064>068-301300-
...SOUTHWEST COLORADO...

CITY           SKY/WX    TMP DP  RH WIND       PRES   REMARKS
DURANGO        FAIR      59  43  55 CALM      30.23R
CORTEZ         FAIR      66  45  46 CALM      30.14R
PAGOSA SPRINGS FAIR      55  41  58 CALM      30.32R
TELLURIDE      CLOUDY    62  35  36 SE3       30.40S
WOLF CREEK PAS FAIR      46  36  66 SW16      30.63R
$$

COZ009-010-012-014-032>034-037-058>063-301300-
...CENTRAL COLORADO...

CITY           SKY/WX    TMP DP  RH WIND       PRES   REMARKS
ASPEN          FAIR      51  37  58 SW3       30.25R
BUENA VISTA    FAIR      52  46  80 CALM      30.32S
COPPER MTN     FAIR      55  23  28 W13G22    30.58S
BERTHOUD PASS  FAIR      45  32  61 NW20G30   30.58S
COTTONWOOD PAS FAIR      55  37  50 CALM      30.43S
GUNNISON       FAIR      50  34  53 CALM      30.33R
KREMMLING      FAIR      41  32  70 CALM      30.26R
LEADVILLE      CLOUDY    50  45  83 CALM      30.44R
MONARCH PASS   FAIR      50  32  50 MISG      30.69S
SALIDA         MOCLDY    57  48  73 W7        30.36S
SUNLIGHT       FAIR      63  30  29 MISG      30.51S
WILKERSON PASS FAIR      46  45  93 W9        30.55S
$$

COZ069>075-301300-
...SAN LUIS VALLEY/SANGRE DE CRISTO MOUNTAINS...

CITY           SKY/WX    TMP DP  RH WIND       PRES   REMARKS
ALAMOSA        FAIR      52  41  66 NW3       30.28R
LA VETA PASS   FAIR      50  36  57 S10G24    30.44S
SAGUACHE       FAIR      50  41  71 NW8       30.31S
$$

COZ035-036-038>040-301300-
...NORTHERN COLORADO FRONT RANGE...

CITY           SKY/WX    TMP DP  RH WIND       PRES   REMARKS
DENVER INTL AP FAIR      65  57  75 S17       30.05F
DMNS CITY PARK   N/A     62  59  93 CALM      30.05F
AURORA         PTCLDY    64  58  80 S16       30.07F
FRONT RANGE AP NOT AVBL
ERIE MUNI ARPT FAIR      58  56  92 CALM      30.05S
BOULDER MUN AP FAIR      59  57  94 CALM      30.05S
CENTENNIAL     FAIR      63  56  78 S14       30.08F
BROOMFIELD     FAIR      61  59  94 CALM      30.08S
LONGMONT       NOT AVBL
$$

COZ041-046-047-076>085-087-088-301300-
...PIKES PEAK/PALMER DIVIDE AND SOUTHERN FOOTHILLS...

CITY           SKY/WX    TMP DP  RH WIND       PRES   REMARKS
COLO. SPRINGS  CLOUDY    61  57  87 SE6       30.20S
A. F. ACADEMY  CLOUDY    59  59 100 S8        30.19F
SCHRIEVER AFB  NOT AVBL
ELLICOTT       NOT AVBL
FALCON         CLOUDY    57  56  97 S6        30.23S FOG
FORT CARSON    CLOUDY    61  58  90 S7        30.16F
LIMON          FAIR      60  59  96 S7        30.11F
MONUMENT HILL  FAIR      55  54  94 S18       30.21F
TRINIDAD       NOT AVBL
$$

COZ042>045-048>051-090-091-301300-
...NORTHEAST COLORADO...

CITY           SKY/WX    TMP DP  RH WIND       PRES   REMARKS
GREELEY ARPT   FAIR      63  59  88 E5        30.04S
AKRON          MOCLDY    61  57  87 N5        30.07R
BURLINGTON     FAIR      64  58  80 S8        30.05R
WRAY           NOT AVBL
STERLING       NOT AVBL
HOLYOKE        NOT AVBL
FORT MORGAN    NOT AVBL
$$

COZ086-089-092>099-301300-
...SOUTHEAST COLORADO...

CITY           SKY/WX    TMP DP  RH WIND       PRES   REMARKS
PUEBLO         FAIR      64  59  83 S3        30.10S
LA JUNTA       FAIR      65  62  90 SE6       30.09S THUNDER
LAMAR          FAIR      66  63  90 S14       30.04F
SPRINGFIELD      N/A     58  55  90 SE8       30.11S
$$



USA.gov is the U.S. government's official web portal to all federal, state and local government web resources and services.